Погода в Альбасете

Испания     38°59′52″N   1°51′29″W
темп.,
°C
ветер,
м/с
пор.,
м/с
влажн.,
%
обл.,
%
осадки,
мм/ч
давл.,
гПа
погр.,
м
24 июня, чт
чт2423:00+18ю587226 0.8 1019226
02:00+16юв588351 1.0 1019251
05:00+15вюв34794 0.0 102085
08:00+16юв36681 0.0 1020240
11:00+21юв56505 0.0 1020931
14:00+24ююв65390 0.0 10201496
17:00+26ю65320 0.0 10181947
20:00+24ю76400 0.0 10181072
25 июня, пт
пт2523:00+20ююв69580 0.0 1021350
02:00+17ююв59720 0.0 1021291
05:00+16юв35780 0.0 1021134
08:00+17юв37740 0.0 1021281
11:00+23ююв67431 0.0 1020805
14:00+27ююв663418 0.0 10191179
17:00+28ю66325 0.0 10161567
20:00+26ю77415 0.0 1016895
26 июня, сб
сб2623:00+21ююв610560 0.0 1018298
02:00+19ююв712662 0.0 1018315
05:00+17ююв48600 0.0 1017189
08:00+19юв25525 0.0 1017151
11:00+26ю44310 0.0 1016553
14:00+29ю65250 0.0 10151194
17:00+30ю65220 0.0 10131375
20:00+28ю88281 0.0 1012775
27 июня, вс
вс2723:00+22ю914469 0.0 1014315
02:00+20ююв7125873 0.0 1014203
05:00+19ю33635 0.0 101329
08:00+20ююз11536 0.0 101325
11:00+27з46274 0.0 10121108
14:00+31з79195 0.0 10102890
17:00+32з911163 0.0 10093116
20:00+31з79192 0.0 10092341
28 июня, пн
пн2823:00+24з49254 0.0 1012177
02:00+21зсз48362 0.0 1013182
05:00+18зсз4835100 0.0 1014212
08:00+17зсз363586 0.0 1016207
11:00+22сз45240 0.0 1016856
14:00+26зсз45163 0.0 10161713
17:00+28сз56141 0.0 10142289
20:00+27сз65163 0.0 10151346